User: anonymous   Login
Location: Unspecified
(0.0000°N, 0.0000°E)
Time: 13:51:19
(UTC+00:00)
Language:

SMS 2 - Orbit

View from above orbital plane
View from above orbital plane
View from above satellite
View from above satellite

Ground track
Ground track

The orbit data is extracted from the following two-line orbital elements,

1  7648U 75011A   18349.63765538 -.00000073 +00000-0 +00000-0 0  9998
2  7648 011.8472 315.2329 0009116 207.9124 333.2806 00.99514579108404
Epoch (UTC): 15 December 2018 15:18:13
Eccentricity: 0.0009116
inclination: 11.8472°
perigee height: 35961 km
apogee height: 36038 km
right ascension of ascending node: 315.2329°
argument of perigee: 207.9124°
revolutions per day: 0.99514579
mean anomaly at epoch: 333.2806°
orbit number at epoch: 10840

The dashed part of the orbit path shows where the satellite is in the earth's shadow,  

DLR